Location: Commenchon
(49.6411°N, 3.1571°E)
Time: 20:55:12
(UTC+00:00)

SL-16 R/B - Pass Details

Date: 15 May 2026
Orbit: 841 x 844 km, 71.0° (Epoch: 7 June)

Event Time Altitude Azimuth Distance (km) Brightness Sun altitude
Rises 21:04:04 0° 328° (NNW) 3,415 7.4 -12.8°
Reaches altitude 10° 21:06:33 10° 325° (NW) 2,476 6.1 -13.0°
Maximum altitude 21:12:06 57° 248° (WSW) 993 2.6 -13.6°
Enters shadow 21:16:34 16° 174° (S) 2,082 3.7 -14.0°
